Location: Newark
(48.5178°N, 4.2361°E)
Time: 04:40:10
(UTC+00:00)

ISS - Pass Details

Date: 31 January 2021
Orbit: 417 x 422 km, 51.6° (Epoch: 05 March)

Event Time Altitude Azimuth Distance (km) Brightness Sun altitude
Rises 18:39:21 0° 291° (WNW) 2,376 1.2 -19.8°
Reaches altitude 10° 18:41:27 10° 291° (WNW) 1,510 0.0 -20.1°
Enters shadow 18:44:45 80° 237° (WSW) 433 -3.8 -20.7°
